EW5961 Weather Reports


time (UTC)temp
C
wind
direction
speed
KPH
gust
KPH
rain 1hr
cm
rain 24hr
cm
rain mn
cm
humidity
%
barometer
mb
20260507140127 28 111 24.1 38.6 0.00 0.00 0.00 75 1012.4
20260507134501 27 136 19.3 35.4 0.00 0.00 0.00 79 1012.3
20260507133058 27 142 11.3 27.4 0.00 0.00 0.00 81 1012.2
20260507131604 26 138 19.3 32.2 0.00 0.00 0.00 84 1012.2
20260507130103 25 128 14.5 24.1 0.00 0.00 0.00 86 1012.1
20260507124603 25 124 14.5 27.4 0.00 0.00 0.00 87 1011.9
20260507123054 24 138 12.9 20.9 0.00 0.00 0.00 87 1011.6
20260507121543 24 125 11.3 20.9 0.00 0.00 0.00 87 1011.7
20260507120035 24 105 9.7 22.5 0.00 0.00 0.00 87 1011.4
20260507114530 24 123 11.3 16.1 0.00 0.00 0.00 87 1011.2
20260507113033 24 99 9.7 19.3 0.00 0.00 0.00 87 1011.2
20260507111526 24 71 8.0 16.1 0.00 0.00 0.00 87 1011.1
20260507110028 24 119 9.7 16.1 0.00 0.00 0.00 86 1011.0
20260507104625 24 123 9.7 19.3 0.00 0.00 0.00 86 1010.9
20260507103021 24 107 8.0 20.9 0.00 0.00 0.00 86 1010.8
20260507101528 25 125 14.5 22.5 0.00 0.00 0.00 86 1010.6
20260507100025 25 134 12.9 22.5 0.00 0.00 0.00 85 1010.4
20260507094521 25 130 12.9 22.5 0.00 0.00 0.00 85 1010.4
20260507093032 25 132 14.5 22.5 0.00 0.00 0.00 84 1010.4
20260507091514 25 137 14.5 27.4 0.00 0.00 0.00 84 1010.6
20260507090019 25 131 14.5 20.9 0.00 0.00 0.00 83 1010.5
20260507084511 25 123 14.5 20.9 0.00 0.00 0.00 83 1010.5
20260507083015 25 132 14.5 25.7 0.00 0.00 0.00 83 1010.7
20260507081506 25 132 17.7 27.4 0.00 0.00 0.00 82 1010.8
20260507080136 25 137 16.1 24.1 0.00 0.00 0.00 82 1010.8
20260507074505 26 138 12.9 25.7 0.00 0.00 0.00 81 1011.1
20260507073111 26 125 17.7 24.1 0.00 0.00 0.00 80 1011.4
20260507071656 26 135 19.3 25.7 0.00 0.00 0.00 80 1011.3
20260507070054 26 103 12.9 22.5 0.00 0.00 0.00 79 1011.3
20260507064555 26 105 16.1 25.7 0.00 0.00 0.00 79 1011.7
20260507063054 26 125 14.5 25.7 0.00 0.00 0.00 78 1011.7
20260507061548 27 141 14.5 30.6 0.00 0.00 0.00 78 1011.6
20260507060046 27 134 20.9 33.8 0.00 0.00 0.00 77 1011.6
20260507054552 27 119 16.1 32.2 0.00 0.00 0.00 76 1011.8
20260507053047 27 129 25.7 37.0 0.00 0.00 0.00 75 1011.8
20260507051544 27 130 27.4 38.6 0.00 0.00 0.00 74 1011.8
20260507050043 28 117 25.7 38.6 0.00 0.00 0.00 72 1011.8
20260507044543 28 115 20.9 30.6 0.00 0.00 0.00 71 1011.9
20260507043042 28 112 17.7 32.2 0.00 0.00 0.00 71 1011.9
20260507041541 29 113 17.7 33.8 0.00 0.00 0.00 70 1011.8
20260507040048 29 142 20.9 40.2 0.00 0.00 0.00 69 1011.8
20260507034553 30 113 22.5 38.6 0.00 0.00 0.00 67 1011.5
20260507033042 30 112 20.9 35.4 0.00 0.00 0.00 67 1011.3
20260507031538 30 140 24.1 33.8 0.00 0.00 0.00 66 1011.1
20260507030039 30 131 27.4 41.8 0.00 0.00 0.00 65 1010.8
20260507024538 31 121 25.7 38.6 0.00 0.00 0.00 63 1010.6
20260507023037 31 107 22.5 43.5 0.00 0.00 0.00 61 1010.5
20260507021537 31 115 22.5 43.5 0.00 0.00 0.00 59 1010.3
20260507020036 32 132 27.4 41.8 0.00 0.00 0.00 58 1010.1
20260507014536 32 123 20.9 43.5 0.00 0.00 0.00 56 1009.8
20260507013038 33 121 17.7 30.6 0.00 0.00 0.00 55 1009.4
20260507011539 33 126 27.4 37.0 0.00 0.00 0.00 53 1009.3
20260507010034 34 92 22.5 35.4 0.00 0.00 0.00 52 1008.9
20260507004533 35 126 22.5 38.6 0.00 0.00 0.00 51 1008.7
20260507003032 35 99 24.1 37.0 0.00 0.00 0.00 49 1008.5
20260507001543 36 118 20.9 33.8 0.00 0.00 0.00 46 1008.3
20260507000131 36 146 19.3 30.6 0.00 0.00 0.00 44 1008.3
20260506234541 36 132 19.3 38.6 0.00 0.00 0.00 42 1008.1
20260506233030 37 144 22.5 33.8 0.00 0.00 0.00 42 1008.0
20260506231534 37 159 22.5 33.8 0.00 0.00 0.00 40 1007.9
20260506230029 37 89 20.9 29.0 0.00 0.00 0.00 41 1007.6
20260506224531 38 150 22.5 35.4 0.00 0.00 0.00 40 1007.4
20260506223028 38 129 20.9 32.2 0.00 0.00 0.00 40 1007.3
20260506221527 38 163 20.9 30.6 0.00 0.00 0.00 39 1007.3
20260506220026 38 162 20.9 33.8 0.00 0.00 0.00 37 1007.4
20260506214525 38 203 20.9 33.8 0.00 0.00 0.00 39 1007.4
20260506213024 38 119 22.5 37.0 0.00 0.00 0.00 38 1007.6
20260506211522 38 140 19.3 33.8 0.00 0.00 0.00 38 1007.7
20260506210023 38 126 19.3 33.8 0.00 0.00 0.00 39 1007.7
20260506204520 38 158 17.7 33.8 0.00 0.00 0.00 40 1007.7
20260506203020 38 137 25.7 37.0 0.00 0.00 0.00 39 1008.0
20260506201521 38 143 24.1 41.8 0.00 0.00 0.00 38 1008.3
20260506200018 38 133 17.7 32.2 0.00 0.00 0.00 39 1008.3
20260506194513 38 159 24.1 37.0 0.00 0.00 0.00 38 1008.7
20260506193010 38 140 20.9 35.4 0.00 0.00 0.00 39 1008.7
20260506191510 38 140 19.3 35.4 0.00 0.00 0.00 41 1009.2
20260506190003 37 146 17.7 40.2 0.00 0.00 0.00 41 1009.5
20260506184602 38 178 16.1 35.4 0.00 0.00 0.00 41 1009.7
20260506183105 37 144 22.5 38.6 0.00 0.00 0.00 41 1010.1
20260506181556 37 140 20.9 35.4 0.00 0.00 0.00 43 1010.3
20260506180048 37 146 17.7 33.8 0.00 0.00 0.00 43 1010.5
20260506173051 36 136 17.7 30.6 0.00 0.00 0.00 47 1010.9
20260506171538 36 155 16.1 32.2 0.00 0.00 0.00 48 1011.1
20260506170035 35 120 20.9 35.4 0.00 0.00 0.00 50 1011.2
20260506164531 35 126 20.9 40.2 0.00 0.00 0.00 50 1011.4
20260506163044 34 130 24.1 40.2 0.00 0.00 0.00 52 1011.5
20260506161526 33 128 25.7 41.8 0.00 0.00 0.00 54 1011.7
20260506160019 33 144 29.0 38.6 0.00 0.00 0.00 55 1011.9
20260506154528 32 140 22.5 40.2 0.00 0.00 0.00 58 1012.0
20260506153011 32 195 24.1 41.8 0.00 0.00 0.00 60 1012.1
20260506151511 31 159 20.9 38.6 0.00 0.00 0.00 65 1012.1
20260506150006 31 140 24.1 40.2 0.00 0.00 0.00 67 1012.2
20260506144559 30 151 22.5 43.5 0.00 0.00 0.00 70 1012.3
20260506143055 30 117 29.0 43.5 0.00 0.00 0.00 72 1012.2
20260506141551 29 121 25.7 38.6 0.00 0.00 0.00 74 1012.2